Arlanda current weather conditions

sailwx.info

Wind from 200 at 12 knots

Air temperature 5.0° C
Visibility: greater than 5.4 NM
Dewpoint 3.0° C

Last reported at 2017-Nov-24 06:50 UTC.
Time now 2017-Nov-24 07:45 UTC

Location: N 59°39' E 017°56'.
View on Google Maps.

See reports from other nearby stations

  
Tides and Currents Weather Stations Pressure Air Temp Water Temp Dewpoint Dewpoint Depression Visibility Wind Speed Wind Dir Waves Ship Positions
date/time (UTC)wind fromknots sea level pressurealtimeterstation pressurevisibilityair tempwater tempwave heightnotes
2017-Nov-24 06:50 200 12 5.4 5.0
2017-Nov-24 06:20 190 13 5.4 6.0
2017-Nov-24 05:50 190 12 5.4 5.0
2017-Nov-24 05:20 190 13 5.4 5.0
2017-Nov-24 04:50 190 14 5.4 6.0
2017-Nov-24 04:20 180 11 5.4 4.0
2017-Nov-24 03:50 160 9 5.4 5.0
2017-Nov-24 03:20 170 11 5.4 4.0
2017-Nov-24 02:50 170 9 5.4 5.0
2017-Nov-24 02:20 190 9 5.4 6.0
2017-Nov-24 01:50 200 11 5.4 6.0
2017-Nov-24 01:20 180 9 5.4 5.0
2017-Nov-24 00:50 190 9 5.4 6.0
2017-Nov-24 00:20 200 11 5.4 6.0
2017-Nov-23 23:50 210 11 5.4 7.0
2017-Nov-23 23:20 220 14 5.4 7.0
2017-Nov-23 22:50 190 13 5.4 8.0
2017-Nov-23 22:20 180 13 5.4 8.0
2017-Nov-23 21:50 180 14 5.4 7.0
2017-Nov-23 21:20 170 14 5.4 7.0
2017-Nov-23 20:50 180 14 4.3 7.0 Light rain.
2017-Nov-23 20:20 170 13 5.4 7.0 Light rain.
2017-Nov-23 19:50 170 13 3.2 7.0 Rain.
2017-Nov-23 19:20 170 13 5.4 7.0
2017-Nov-23 18:50 160 14 5.4 8.0
2017-Nov-23 18:20 160 17 5.4 8.0
2017-Nov-23 17:50 160 17 5.4 8.0
2017-Nov-23 17:20 160 17 5.4 8.0
2017-Nov-23 16:50 140 17 5.4 7.0 Light rain.
2017-Nov-23 16:20 140 17 5.4 7.0 Light drizzle.
2017-Nov-23 15:50 140 17 5.4 8.0 Light rain.
2017-Nov-23 15:20 150 15 5.4 8.0 Light drizzle.
2017-Nov-23 14:50 160 12 4.9 8.0 Light drizzle.
2017-Nov-23 14:20 160 13 5.4 8.0 Light rain.
2017-Nov-23 13:50 160 13 4.3 8.0 Light rain. Mist.
2017-Nov-23 13:20 160 13 5.4 8.0 Light rain.
2017-Nov-23 12:50 170 13 5.4 8.0 Light rain.
2017-Nov-23 12:20 170 13 5.4 8.0
2017-Nov-23 11:50 160 13 5.4 8.0 Light drizzle.
2017-Nov-23 11:20 170 13 5.4 8.0
2017-Nov-23 10:50 160 14 5.4 8.0
2017-Nov-23 10:20 160 14 5.4 7.0
2017-Nov-23 09:50 160 14 4.9 7.0 Mist.
2017-Nov-23 09:20 150 13 3.8 8.0 Mist.
2017-Nov-23 08:50 160 15 3.8 8.0 Mist.
2017-Nov-23 08:20 160 15 3.2 8.0 Mist.
2017-Nov-23 07:50 160 14 3.2 8.0 Mist.
2017-Nov-23 07:20 170 13 3.2 8.0 Mist.
2017-Nov-23 06:50 160 13 3.2 8.0 Mist.
2017-Nov-23 06:20 170 13 3.2 8.0 Mist.
2017-Nov-23 05:50 160 13 3.2 8.0 Mist.
2017-Nov-23 05:20 160 12 1.9 7.0 Mist.
2017-Nov-23 04:50 140 12 5.4 7.0
2017-Nov-23 04:20 150 11 5.4 6.0 Light rain.
2017-Nov-23 03:50 130 12 5.4 6.0 Light rain.
2017-Nov-23 03:20 140 12 5.4 5.0 Light rain.
2017-Nov-23 02:50 130 14 3.2 5.0 Light rain.
2017-Nov-23 02:20 130 15 1.1 4.0 Light drizzle snow.
2017-Nov-23 01:50 130 17 1.9 4.0 Light rain.
2017-Nov-23 01:20 130 17 1.9 4.0 Light rain.
2017-Nov-23 00:50 130 18 2.2 3.0 Light rain.
2017-Nov-23 00:20 130 18 2.4 3.0 Light rain.
2017-Nov-22 23:50 130 18 2.4 3.0 Light rain.
2017-Nov-22 23:20 130 17 2.7 3.0 Light rain.
2017-Nov-22 22:50 130 17 3.8 2.0 Light rain.
2017-Nov-22 22:20 130 19 2.7 2.0 Light rain.
2017-Nov-22 21:50 130 14 3.2 2.0 Light rain.
2017-Nov-22 21:20 130 15 3.2 2.0 Light rain.
2017-Nov-22 20:50 130 18 4.3 2.0 Light rain.
2017-Nov-22 20:20 130 14 4.3 3.0 Light rain.
2017-Nov-22 19:50 120 13 4.3 2.0 Light rain.
2017-Nov-22 19:20 120 13 3.2 2.0 Light rain.
2017-Nov-22 18:50 130 13 1.8 2.0 Light rain.
2017-Nov-22 18:20 120 12 5.4 2.0 Light rain.
2017-Nov-22 17:50 100 9 5.4 2.0
2017-Nov-22 17:20 110 9 5.4 2.0
2017-Nov-22 16:50 110 7 5.4 2.0 Light rain.
2017-Nov-22 16:20 110 8 5.4 2.0 Light rain.
2017-Nov-22 15:50 100 7 5.4 1.0
2017-Nov-22 15:20 090 7 5.4 1.0
2017-Nov-22 14:50 090 6 5.4-0.0
2017-Nov-22 14:20 090 6 5.4-0.0
2017-Nov-22 13:50 080 6 5.4-1.0
2017-Nov-22 13:20 070 7 5.4-1.0
2017-Nov-22 12:50 080 6 5.4-2.0
2017-Nov-22 12:20 080 5 5.4-3.0
2017-Nov-22 11:50 070 4 5.4-3.0
2017-Nov-22 11:20 050 4 5.4-4.0
2017-Nov-22 10:50 080 2 2.7-4.0 Mist.
2017-Nov-22 10:20 080 2 2.7-4.0 Mist.
2017-Nov-22 09:50 3.8-5.0 Mist.
2017-Nov-22 09:20 070 2 0.5-5.0 Snow grains.
2017-Nov-22 08:50 080 2 1.3-5.0 Snow grains.
2017-Nov-22 08:20 150 2 0.6-5.0 Mist.
2017-Nov-22 07:50 3.2-5.0 Mist.
2017-Nov-22 07:20 5.4-6.0